THOR ABLESTAR DEB, 420

Orbit data source: Space-Track

THOR ABLESTAR DEB, 420 is space debris in LEO originally from a launch on Thu, 29 Jun 1961 UTC launched from the Air Force Eastern Test Range (AFETR). Debris objects in space refer to the collection of defunct objects orbiting the Earth. Examples of debris include non-operational satellites, rocket bodies, and fragments generated from explosions, collisions, or faulty payload assembly.

Loading next visibility...
Identifier
420, 1961-015EV
Orbit
LEO
Country
Flag of USUS
Related business
Manufacturer
Unknown
Mission
Spacecraft
Bus & Motor
Unknown
Mass
Unknown
Launch date (UTC)
1961-06-29 (65 years ago)
Launch vehicle
Unknown
Launch site
Air Force Eastern Test Range (AFETR)
Object type
Payload
Rocket body
Debris
Shape & HBR
Unknown shape, 0.1 m
Radar Cross Section
Small (<0.1 m²)

Expand to show TLE details & history
Last TLE update: 14 hours ago

TLE from 14 hours ago
0 THOR ABLESTAR DEB
1   420U 61015EV  26119.24064451  .00000778  00000-0  29553-3 0  9993
2   420  66.8142  45.2438 0089566 247.7246 111.4339 14.34006506346562
Epoch: 2026-04-29T05:46Z
TLE epoch observation values (Epoch: 2026-04-29T05:46:31.685Z)
Latitude
-0.00008°
Longitude
101.4073°
Altitude
804.41 km
Speed
7.439 km/s
True Right ascension
03h 00m 58s
True Declination
0° 00' 00"
Sunlit
Object was in daylight at epoch
Visualization orbit readout
Latitude
Unknown
Longitude
Unknown
Altitude
Unknown
Speed
Unknown
Apparent Right ascension
Unknown
Apparent Declination
Unknown
Sunlit
N/A
Visualization observer readout
Local Sidereal Time
02:50:15
Azimuth
Unknown
Elevation
Unknown
Doppler factor
Unknown
Orbital elements
Apogee altitude
840.812 km
Perigee altitude
712.645 km
Semi-major axis
7,154.865 km
Eccentricity
0.00896
Inclination
66.8142°
RAAN
45.2438°
Arg. of periapsis
247.7246°
True anomaly
112.38533°
Mean anomaly
111.4339°
Eccentric anomaly
111.91001°
Mean motion
3.58625 °/min
Orbital period
100.38 mins
BSTAR
0.00029553
Loading maneuver chart data...
Computing Atmospheric mass density...

Documentation

Showing up to 5 results
|